Weather in Uchebnoye

Russia / The Kabardino-Balkar Republic     43°46′46″N   43°55′45″E
temp.,
°C
wind,
m/s
gust,
m/s
humid.,
%
clouds,
%
prec.,
mm/h
press.,
hPa
HPBL,
m
16 october, sat
sat1600:00+12ene22565 0.0 101914
03:00+11ne116113 0.0 101910
06:00+10ene12665 0.0 101811
09:00+14ene23545 0.0 1017305
12:00+19e33477 0.0 1015734
15:00+20e335085 0.0 1014937
18:00+16ene22670 0.0 101420
21:00+15ne01735 0.0 101410
17 october, sun
sun1700:00+13nne11742 0.0 101310
03:00+12nw22792 0.0 101312
06:00+12w228722 0.0 101411
09:00+16wnw127020 0.0 1014302
12:00+21nnw23515 0.0 1012835
15:00+22n3347100 0.0 10111108
18:00+18nnw2258100 0.0 101323
21:00+16wsw3479100 0.1 1014105
18 october, mon
mon1800:00+16sw237689 0.3 101368
03:00+14w2276100 0.3 101312
06:00+14nw2284100 0.0 101418
09:00+17nw2472100 0.0 1015376
12:00+19wnw2360100 0.5 1014953
15:00+18nw4567100 1.8 1014585
18:00+14nw5890100 4.3 1016350
21:00+14wsw1187100 7.5 101739
19 october, tue
tue1900:00+14wsw2285100 0.1 101732
03:00+14nw2281100 0.4 101768
06:00+13ssw1182100 0.1 101822
09:00+14sse228198 0.1 1018175
12:00+14nnw4570100 0.3 1018523
15:00+12nnw3877100 0.4 1018560
18:00+11nnw2685100 0.3 1019454
21:00+11n3685100 1.0 1019560
20 october, wed
wed2000:00+9n3583100 0.7 1018364
03:00+9ssw2291100 5.6 1019197
06:00+8wnw3107778 0.8 10201063
09:00+9wnw71472100 0.9 10221470
12:00+10nw71364100 0.3 10231894
15:00+11nw61246100 0.3 10242159
18:00+9wnw2550100 0.0 1028154
21:00+7nw2358100 0.0 103097